| time (UTC) | temp C | wind direction | speed KPH | gust KPH | rain 1hr cm | rain 24hr cm | rain mn cm | humidity % | barometer mb |
| 20260504231801 | 15 | 96 | 6.4 | 11.3 | 0.00 | 0.18 | 0.00 | 86 | 1010.9 |
| 20260504230901 | 15 | 112 | 6.4 | 12.9 | 0.00 | 0.18 | 0.00 | 86 | 1010.7 |
| 20260504230022 | 15 | 91 | 6.4 | 12.9 | 0.00 | 0.18 | 0.00 | 87 | 1010.9 |
| 20260504225401 | 15 | 93 | 8.0 | 14.5 | 0.00 | 0.18 | 0.00 | 87 | 1010.8 |
| 20260504224522 | 16 | 88 | 4.8 | 11.3 | 0.00 | 0.18 | 0.00 | 90 | 1010.6 |
| 20260504223601 | 16 | 69 | 4.8 | 9.7 | 0.00 | 0.18 | 0.00 | 91 | 1010.6 |
| 20260504222701 | 16 | 95 | 4.8 | 9.7 | 0.00 | 0.18 | 0.00 | 91 | 1010.8 |
| 20260504221801 | 16 | 88 | 3.2 | 9.7 | 0.00 | 0.18 | 0.00 | 91 | 1011.0 |
| 20260504220901 | 16 | 91 | 4.8 | 6.4 | 0.00 | 0.18 | 0.00 | 91 | 1011.3 |
| 20260504220023 | 16 | 97 | 3.2 | 8.0 | 0.00 | 0.18 | 0.00 | 91 | 1011.2 |
| 20260504215401 | 16 | 89 | 3.2 | 8.0 | 0.00 | 0.18 | 0.18 | 90 | 1011.3 |
| 20260504214501 | 16 | 83 | 3.2 | 9.7 | 0.00 | 0.18 | 0.18 | 90 | 1011.4 |
| 20260504213622 | 16 | 87 | 3.2 | 8.0 | 0.00 | 0.18 | 0.18 | 91 | 1011.4 |
| 20260504212701 | 16 | 89 | 4.8 | 6.4 | 0.00 | 0.18 | 0.18 | 91 | 1011.7 |
| 20260504211801 | 16 | 102 | 3.2 | 6.4 | 0.00 | 0.18 | 0.18 | 91 | 1011.7 |
| 20260504210922 | 16 | 96 | 3.2 | 6.4 | 0.00 | 0.18 | 0.18 | 91 | 1011.6 |
| 20260504210001 | 16 | 63 | 3.2 | 4.8 | 0.00 | 0.18 | 0.18 | 91 | 1011.4 |
| 20260504205401 | 16 | 57 | 1.6 | 3.2 | 0.00 | 0.18 | 0.18 | 91 | 1011.5 |
| 20260504204522 | 16 | 72 | 1.6 | 4.8 | 0.00 | 0.18 | 0.18 | 91 | 1011.4 |
| 20260504203601 | 16 | 113 | 1.6 | 6.4 | 0.00 | 0.18 | 0.18 | 90 | 1011.5 |
| 20260504202701 | 16 | 138 | 1.6 | 6.4 | 0.00 | 0.18 | 0.18 | 90 | 1011.1 |
| 20260504201801 | 16 | 310 | 1.6 | 4.8 | 0.00 | 0.18 | 0.18 | 91 | 1011.1 |
| 20260504200901 | 16 | 97 | 1.6 | 6.4 | 0.00 | 0.18 | 0.18 | 91 | 1011.1 |
| 20260504200001 | 16 | 122 | 3.2 | 9.7 | 0.00 | 0.18 | 0.18 | 91 | 1010.7 |
| 20260504195401 | 16 | 160 | 4.8 | 9.7 | 0.00 | 0.18 | 0.18 | 90 | 1010.6 |
| 20260504194501 | 16 | 152 | 3.2 | 9.7 | 0.00 | 0.18 | 0.18 | 91 | 1010.7 |
| 20260504193601 | 16 | 130 | 3.2 | 6.4 | 0.00 | 0.18 | 0.18 | 91 | 1010.4 |
| 20260504192701 | 16 | 144 | 1.6 | 6.4 | 0.03 | 0.18 | 0.18 | 91 | 1010.2 |
| 20260504191801 | 16 | 153 | 3.2 | 6.4 | 0.05 | 0.18 | 0.18 | 91 | 1010.1 |
| 20260504190902 | 16 | 140 | 3.2 | 8.0 | 0.05 | 0.18 | 0.18 | 90 | 1009.7 |
| 20260504190023 | 16 | 148 | 3.2 | 6.4 | 0.08 | 0.18 | 0.18 | 90 | 1010.0 |
| 20260504185401 | 17 | 159 | 3.2 | 8.0 | 0.08 | 0.18 | 0.18 | 90 | 1009.7 |
| 20260504184501 | 17 | 170 | 1.6 | 6.4 | 0.10 | 0.18 | 0.18 | 89 | 1009.9 |
| 20260504183602 | 17 | 142 | 1.6 | 8.0 | 0.10 | 0.15 | 0.15 | 89 | 1009.9 |
| 20260504182702 | 17 | 130 | 4.8 | 9.7 | 0.10 | 0.15 | 0.15 | 89 | 1009.8 |
| 20260504181802 | 17 | 121 | 1.6 | 8.0 | 0.10 | 0.13 | 0.13 | 88 | 1009.7 |
| 20260504180901 | 17 | 164 | 1.6 | 8.0 | 0.10 | 0.13 | 0.13 | 87 | 1009.7 |
| 20260504180002 | 17 | 162 | 3.2 | 11.3 | 0.08 | 0.10 | 0.10 | 87 | 1009.7 |
| 20260504175402 | 17 | 165 | 4.8 | 11.3 | 0.08 | 0.10 | 0.10 | 87 | 1010.0 |
| 20260504174523 | 17 | 149 | 4.8 | 14.5 | 0.05 | 0.08 | 0.08 | 86 | 1010.0 |
| 20260504173602 | 17 | 158 | 4.8 | 11.3 | 0.03 | 0.05 | 0.05 | 85 | 1010.1 |
| 20260504172701 | 18 | 160 | 4.8 | 9.7 | 0.03 | 0.05 | 0.05 | 85 | 1009.9 |
| 20260504171802 | 18 | 149 | 4.8 | 14.5 | 0.03 | 0.05 | 0.05 | 83 | 1010.0 |
| 20260504170902 | 18 | 163 | 8.0 | 14.5 | 0.00 | 0.03 | 0.03 | 78 | 1010.1 |
| 20260504150902 | 19 | 151 | 6.4 | 24.1 | 0.00 | 0.00 | 0.00 | 76 | 1010.5 |
| 20260504140923 | 21 | 167 | 11.3 | 27.4 | 0.00 | 0.00 | 0.00 | 69 | 1010.3 |
| 20260504081802 | 20 | 161 | 4.8 | 14.5 | 0.00 | 0.00 | 0.00 | 62 | 1011.7 |
| 20260504080923 | 20 | 183 | 4.8 | 12.9 | 0.00 | 0.00 | 0.00 | 63 | 1011.8 |
| 20260504050003 | 15 | 132 | 4.8 | 9.7 | 0.00 | 0.00 | 0.00 | 91 | 1012.2 |
| 20260504045403 | 15 | 150 | 3.2 | 8.0 | 0.00 | 0.00 | 0.00 | 91 | 1012.2 |
| 20260504044502 | 15 | 116 | 3.2 | 8.0 | 0.00 | 0.00 | 0.00 | 91 | 1011.9 |
| 20260504043623 | 15 | 79 | 3.2 | 8.0 | 0.00 | 0.00 | 0.00 | 91 | 1012.1 |
| 20260504042703 | 15 | 122 | 3.2 | 8.0 | 0.00 | 0.00 | 0.00 | 91 | 1012.3 |
| 20260504041803 | 15 | 166 | 3.2 | 6.4 | 0.00 | 0.00 | 0.00 | 91 | 1012.3 |
| 20260504040903 | 15 | 137 | 3.2 | 8.0 | 0.00 | 0.00 | 0.00 | 90 | 1012.5 |
| 20260504040003 | 15 | 138 | 3.2 | 8.0 | 0.00 | 0.00 | 0.00 | 90 | 1012.3 |
| 20260504035403 | 15 | 74 | 3.2 | 8.0 | 0.00 | 0.00 | 0.00 | 90 | 1012.5 |
| 20260504034524 | 15 | 175 | 1.6 | 6.4 | 0.00 | 0.00 | 0.00 | 90 | 1012.6 |
| 20260504033603 | 15 | 169 | 3.2 | 6.4 | 0.00 | 0.00 | 0.00 | 90 | 1012.6 |
| 20260504032703 | 15 | 145 | 1.6 | 6.4 | 0.00 | 0.00 | 0.00 | 90 | 1012.6 |
| 20260504031803 | 15 | 37 | 3.2 | 9.7 | 0.00 | 0.00 | 0.00 | 90 | 1012.8 |
| 20260504030924 | 15 | 125 | 1.6 | 6.4 | 0.00 | 0.00 | 0.00 | 90 | 1012.8 |
| 20260504030003 | 15 | 148 | 3.2 | 8.0 | 0.00 | 0.00 | 0.00 | 90 | 1013.0 |
| 20260504025403 | 15 | 156 | 3.2 | 8.0 | 0.00 | 0.00 | 0.00 | 90 | 1012.9 |
| 20260504024503 | 15 | 147 | 3.2 | 8.0 | 0.00 | 0.00 | 0.00 | 90 | 1012.7 |
| 20260504023603 | 15 | 144 | 3.2 | 9.7 | 0.00 | 0.00 | 0.00 | 90 | 1013.0 |
| 20260504022703 | 15 | 95 | 3.2 | 8.0 | 0.00 | 0.00 | 0.00 | 90 | 1012.9 |
| 20260504021803 | 15 | 31 | 3.2 | 9.7 | 0.00 | 0.00 | 0.00 | 90 | 1013.2 |
| 20260504020924 | 15 | 153 | 1.6 | 8.0 | 0.00 | 0.00 | 0.00 | 90 | 1013.1 |
| 20260504020003 | 15 | 133 | 3.2 | 8.0 | 0.00 | 0.00 | 0.00 | 91 | 1013.3 |
| 20260504015403 | 15 | 157 | 3.2 | 8.0 | 0.00 | 0.00 | 0.00 | 91 | 1013.3 |
| 20260504014503 | 15 | 127 | 3.2 | 8.0 | 0.00 | 0.00 | 0.00 | 91 | 1013.1 |
| 20260504013603 | 15 | 138 | 3.2 | 8.0 | 0.00 | 0.00 | 0.00 | 91 | 1013.0 |
| 20260504012703 | 15 | 168 | 3.2 | 9.7 | 0.00 | 0.00 | 0.00 | 91 | 1013.3 |
| 20260504011803 | 15 | 30 | 3.2 | 8.0 | 0.00 | 0.00 | 0.00 | 91 | 1013.3 |
| 20260504010903 | 15 | 123 | 1.6 | 6.4 | 0.00 | 0.00 | 0.00 | 91 | 1013.4 |
| 20260504010003 | 15 | 133 | 1.6 | 4.8 | 0.00 | 0.00 | 0.00 | 91 | 1013.3 |
| 20260504005424 | 15 | 162 | 0.0 | 3.2 | 0.00 | 0.00 | 0.00 | 92 | 1013.3 |
| 20260504004524 | 15 | 147 | 0.0 | 4.8 | 0.00 | 0.00 | 0.00 | 92 | 1013.2 |
| 20260504003624 | 15 | 137 | 1.6 | 6.4 | 0.00 | 0.00 | 0.00 | 92 | 1013.3 |
| 20260504002703 | 15 | 148 | 1.6 | 4.8 | 0.00 | 0.00 | 0.00 | 91 | 1013.6 |
| 20260504001803 | 15 | 195 | 1.6 | 4.8 | 0.00 | 0.00 | 0.00 | 91 | 1013.5 |
| 20260504000924 | 15 | 152 | 1.6 | 3.2 | 0.00 | 0.00 | 0.00 | 91 | 1013.5 |
| 20260504000003 | 15 | 192 | 1.6 | 4.8 | 0.00 | 0.00 | 0.00 | 91 | 1013.6 |
| 20260503235403 | 15 | 124 | 1.6 | 4.8 | 0.00 | 0.00 | 0.00 | 91 | 1014.0 |
| 20260503234503 | 15 | 175 | 1.6 | 6.4 | 0.00 | 0.00 | 0.00 | 91 | 1013.9 |
| 20260503233603 | 15 | 138 | 3.2 | 6.4 | 0.00 | 0.00 | 0.00 | 91 | 1013.9 |
| 20260503232703 | 15 | 109 | 1.6 | 6.4 | 0.00 | 0.00 | 0.00 | 91 | 1014.1 |